User: anonymous   Login
Location: Gipe Farm
(40.9466°N, 95.5370°W)
Time: 17:04:05
(UTC-06:00)
Language:

Cosmos 1842 - Orbit

View from above orbital plane
View from above orbital plane
View from above satellite
View from above satellite

Ground track
Ground track

The orbit data is extracted from the following two-line orbital elements,

1 17911U 87038A   18015.86442751 +.00000719 +00000-0 +40613-4 0  9992
2 17911 082.5218 345.5490 0009928 227.7494 132.2895 15.11553851673630
Epoch (UTC): 15 January 2018 20:44:46
Eccentricity: 0.0009928
inclination: 82.5218°
perigee height: 524 km
apogee height: 538 km
right ascension of ascending node: 345.5490°
argument of perigee: 227.7494°
revolutions per day: 15.11553851
mean anomaly at epoch: 132.2895°
orbit number at epoch: 67363

The dashed part of the orbit path shows where the satellite is in the earth's shadow,  

DLR